RH
3 3 3 3 4 4 5 6 6 7 10 12 12 11 20 32 21 11 17 17 21 33 42 60 76 69 58 57 64 72 68 55 54 58 54 51 51 50 49 47 41 42 46 46 45 39 36 39 32 28 36 41 54 84 100 96 81 63 53 53 58 60 55 52 49 46 45 43 55 75 75 65 61 65 74 70 66 70 66 67 74 72 76 85 93 86 49
4 4 3 3 4 5 4 6 6 6 7 8 9 18 33 31 17 19 20 9 18 36 38 44 61 63 52 53 61 60 59 63 56 47 53 60 56 49 48 47 40 47 61 53 39 34 30 28 30 35 45 57 80 100 98 92 84 68 63 61 52 49 52 49 41 39 41 44 51 57 58 60 59 67 83 77 70 79 80 76 71 64 69 74 78 75 41
4 3 4 3 3 4 5 5 6 7 7 6 9 22 39 31 18 29 30 13 23 48 56 59 64 62 52 48 54 49 47 66 68 56 62 73 66 51 44 50 55 60 63 54 49 47 30 23 36 45 46 59 86 101 95 97 97 86 87 87 64 46 47 44 35 34 36 37 41 42 44 51 53 63 81 79 74 73 65 65 67 64 69 72 71 63 35
12 5 3 3 3 4 4 4 6 7 6 7 8 15 32 32 22 40 54 42 40 54 69 78 68 54 50 44 42 39 33 49 69 65 58 64 70 62 51 53 57 53 49 46 54 60 47 37 44 50 48 52 73 96 99 98 99 95 98 98 78 60 56 51 44 41 39 34 33 34 40 43 40 48 63 71 77 73 65 72 73 66 76 75 58 51 42
27 16 7 3 3 3 3 4 5 6 6 7 8 16 38 43 29 37 50 43 47 55 61 74 66 49 50 39 28 39 39 34 45 51 51 66 77 65 52 50 42 32 34 37 42 55 58 51 46 49 59 64 71 90 101 99 96 96 98 96 78 63 61 62 62 56 47 43 41 39 45 47 41 44 50 60 80 81 68 67 61 57 69 61 39 43 51
35 30 20 9 4 2 3 5 3 5 6 5 9 23 42 45 30 34 39 29 36 42 40 60 66 55 66 62 37 43 45 28 30 37 44 63 66 45 35 42 43 41 39 30 29 40 46 46 45 44 55 65 63 68 84 98 100 90 85 85 71 60 64 68 67 65 57 53 50 44 48 53 52 55 52 54 75 82 67 59 54 52 55 44 33 41 46
36 37 33 22 13 4 2 5 3 5 6 2 9 24 34 37 32 38 45 39 42 49 50 65 62 47 65 66 40 38 37 22 29 38 34 40 45 35 24 26 45 66 60 37 30 37 35 35 42 43 44 52 50 44 52 76 92 81 71 78 71 58 72 82 74 66 58 53 54 57 63 67 61 56 54 53 65 73 67 60 56 54 52 43 39 43 43
38 38 37 33 28 15 5 4 2 5 5 1 15 29 29 28 28 35 52 57 64 72 71 69 58 48 57 48 33 45 42 28 39 46 33 24 27 37 34 26 51 82 72 45 35 36 31 26 35 41 41 50 56 46 40 56 79 78 71 78 67 46 63 88 79 60 51 53 63 66 67 69 60 48 46 51 59 65 68 66 61 62 63 56 51 58 57
40 40 38 37 38 30 19 8 1 4 5 3 19 33 30 27 27 34 47 48 52 63 64 64 58 48 46 38 32 41 39 37 47 48 51 47 31 36 44 36 56 80 69 52 50 52 48 42 46 48 42 52 60 46 41 54 68 76 78 74 59 45 64 89 79 59 52 56 64 64 57 58 61 53 47 50 61 69 72 71 68 65 62 56 57 62 54
42 41 40 39 39 38 34 22 9 6 3 3 19 30 32 32 26 34 46 38 41 58 56 55 51 36 36 44 41 38 45 60 54 32 50 75 61 55 58 46 52 61 47 43 54 63 69 69 74 75 66 72 77 61 60 67 67 76 83 77 71 64 64 73 70 61 60 60 60 57 45 38 42 45 42 44 55 61 59 61 64 61 52 50 53 49 38
41 40 39 39 39 38 39 36 26 18 6 2 15 25 32 30 21 46 69 41 29 54 50 36 32 24 35 56 54 46 53 67 57 25 26 56 71 81 78 53 46 51 47 57 75 85 93 94 96 97 87 84 87 81 78 76 79 86 78 76 91 83 62 64 67 62 65 67 58 46 35 31 34 40 40 35 35 39 39 40 49 52 47 46 47 41 36
37 38 36 38 40 37 39 40 38 36 23 7 8 16 25 23 17 57 91 47 21 52 50 28 36 43 54 67 61 53 52 55 63 55 37 45 72 91 84 54 38 48 65 86 99 97 92 87 85 87 87 85 85 86 84 81 89 94 74 69 90 87 69 72 77 73 74 71 56 38 29 31 32 41 55 50 36 39 43 39 42 48 50 50 49 44 40
34 36 34 36 40 37 38 39 38 44 40 23 14 13 16 17 15 51 89 58 25 41 39 31 62 84 84 78 60 54 61 66 81 86 66 61 73 78 78 67 50 60 88 102 96 78 62 63 70 66 66 73 70 71 87 95 94 91 82 78 84 83 79 78 79 78 69 58 53 40 29 28 25 36 65 68 47 45 50 42 35 37 48 57 54 47 45
35 36 35 37 40 39 40 41 38 42 44 35 30 25 17 15 11 29 63 55 29 36 43 42 55 60 60 66 59 52 58 64 70 68 61 73 85 78 84 91 79 86 106 96 75 60 44 52 70 61 53 63 54 45 68 93 94 89 90 88 78 75 79 71 65 70 63 56 63 54 36 32 24 24 45 53 43 41 45 43 35 32 47 62 54 42 42
37 39 40 40 43 42 41 43 42 42 44 39 37 37 30 23 13 11 36 55 46 43 46 36 27 28 42 61 62 49 48 53 53 52 61 84 96 92 96 101 96 101 99 75 64 65 48 41 52 46 39 45 39 30 44 64 77 85 94 93 79 72 75 60 49 66 74 64 64 63 47 35 26 23 34 49 56 52 45 44 43 40 46 51 44 39 41
36 37 40 41 44 43 39 42 43 42 45 42 35 37 37 34 26 7 17 55 61 37 30 33 34 40 48 56 55 43 38 45 50 57 69 72 73 86 100 99 99 105 91 69 74 80 58 40 40 38 36 34 27 28 35 39 52 70 82 88 80 75 83 74 56 69 82 63 56 66 54 34 30 28 29 49 69 63 49 49 52 50 48 41 38 43 44
36 36 38 38 42 43 38 38 39 38 42 41 34 37 39 40 38 16 12 52 61 27 28 56 63 57 49 45 50 49 43 46 46 42 44 43 46 71 92 90 93 100 85 66 73 79 66 52 45 41 49 49 32 28 38 40 41 46 57 76 86 84 90 85 69 76 88 76 71 76 58 39 40 34 33 61 78 60 48 52 50 45 44 39 40 46 46
37 36 39 39 41 43 38 35 35 33 38 38 32 35 38 39 42 28 25 62 70 33 32 58 57 46 39 30 37 46 44 46 45 36 42 52 52 57 69 70 67 69 67 63 66 67 58 51 47 40 47 57 42 28 37 42 35 36 48 67 84 92 95 91 86 91 93 83 78 74 58 48 48 44 54 75 70 47 44 49 42 38 41 41 43 48 47
38 36 39 39 38 40 36 34 35 34 38 37 28 32 41 40 39 31 28 56 67 38 31 51 51 43 41 38 44 52 50 49 48 44 49 56 53 55 68 68 53 49 61 66 64 59 47 43 51 47 47 62 58 38 37 39 33 37 45 45 57 77 83 82 88 93 91 91 90 76 57 47 42 47 64 68 50 40 43 40 35 41 46 43 44 48 48
40 38 39 38 38 39 35 35 40 41 42 40 31 35 44 40 38 34 27 43 63 51 37 47 53 48 45 44 44 45 49 55 57 54 52 51 51 56 62 61 53 52 57 55 52 54 46 41 52 55 53 63 59 41 40 44 39 37 34 30 43 57 54 58 77 81 75 85 89 67 48 46 41 41 53 51 37 35 38 35 37 46 47 46 48 49 49
39 38 40 39 38 39 36 38 47 49 44 40 32 33 42 42 38 35 26 30 52 56 42 42 52 53 51 54 52 48 52 55 51 53 58 59 56 47 38 45 56 52 47 46 47 48 46 47 57 61 56 54 50 46 49 51 51 47 38 37 50 51 38 44 65 63 53 61 65 45 31 40 43 36 34 32 29 33 39 41 44 44 44 49 52 51 51
36 36 40 40 40 40 38 42 53 56 49 38 27 26 37 43 38 33 29 28 40 51 50 51 60 63 59 59 59 58 60 60 55 56 57 58 63 57 44 50 60 54 49 51 48 45 52 57 55 52 51 49 49 55 57 51 52 53 42 37 45 49 45 45 49 50 47 44 42 35 25 29 40 41 34 30 32 37 40 43 47 48 48 50 53 54 55
34 34 38 41 42 41 40 41 52 61 57 41 26 23 33 42 40 33 28 29 38 47 48 51 60 65 65 67 64 60 61 61 61 65 60 54 67 77 66 55 55 57 58 52 43 47 62 65 53 46 53 58 53 54 57 58 61 59 49 42 44 49 55 51 44 50 53 38 30 35 31 28 36 42 39 39 42 42 41 44 50 53 52 53 56 59 59
34 35 38 41 41 42 42 41 48 61 62 47 31 25 27 34 40 39 33 35 48 53 47 51 64 66 64 68 66 59 59 58 57 64 64 55 58 68 66 54 49 57 64 59 53 57 64 63 56 53 59 65 58 52 55 61 66 62 55 55 59 57 53 46 40 47 53 41 33 34 31 28 34 37 38 44 48 47 48 52 54 55 56 59 61 61 62
36 38 38 38 38 39 39 39 43 55 64 55 35 24 26 33 39 42 41 45 59 70 65 62 65 61 59 67 65 57 57 58 56 58 62 62 59 55 53 54 54 59 64 61 58 59 57 55 58 59 62 64 59 54 56 57 60 60 54 55 62 56 46 45 46 45 46 40 34 33 31 33 40 42 43 44 45 46 52 57 60 61 61 61 61 61 65
38 40 39 37 36 34 34 35 37 46 60 62 43 25 30 42 40 38 45 53 59 70 75 72 65 58 60 66 64 58 58 58 57 57 58 62 65 63 64 69 69 65 63 62 63 68 67 62 60 62 67 66 58 57 61 56 53 57 54 49 51 49 45 48 50 48 47 44 41 42 42 41 43 46 46 45 45 48 54 60 64 64 60 57 56 57 60
32 35 37 37 34 31 29 29 30 37 50 61 55 35 30 41 42 39 53 62 49 40 55 76 80 70 63 62 61 60 58 57 60 62 60 59 64 69 74 80 80 75 69 66 69 74 74 70 67 72 81 79 66 65 71 62 54 60 61 52 49 49 49 51 53 55 56 49 43 47 49 44 42 44 45 46 48 53 59 63 62 59 56 57 59 56 56
25 28 31 33 31 29 26 23 26 34 42 53 62 50 32 35 44 47 55 60 46 39 64 92 91 68 53 54 58 57 56 56 59 62 62 62 65 70 74 79 86 86 76 69 71 73 72 73 75 78 80 77 68 68 71 62 57 62 62 56 52 49 47 49 53 54 50 39 37 46 52 48 45 44 47 51 53 57 63 63 59 57 58 60 64 65 62
20 23 27 29 29 27 25 22 27 36 39 46 62 65 50 41 42 42 48 56 57 65 85 94 79 58 48 53 59 57 53 57 60 60 62 65 69 75 81 85 86 83 75 74 80 80 79 83 83 76 68 61 59 62 63 63 66 61 51 51 54 48 43 45 44 41 37 33 38 49 54 51 48 49 54 56 56 60 67 64 60 61 60 59 65 68 65
23 24 26 28 28 29 30 30 34 40 39 39 55 73 74 62 47 38 48 62 63 66 78 80 68 57 54 58 63 57 49 56 62 58 57 65 71 76 85 91 87 79 77 80 79 79 85 89 86 83 77 63 54 56 62 72 81 68 47 45 51 47 45 46 43 39 37 37 43 54 58 59 59 61 63 63 61 64 68 63 58 59 59 59 66 68 64
27 27 27 27 28 31 35 39 44 45 35 31 52 78 80 64 48 44 55 67 64 66 81 85 73 67 66 60 55 51 52 61 66 58 55 64 73 77 85 92 87 78 82 87 83 82 90 88 79 82 84 67 55 61 69 74 79 69 50 45 49 49 50 50 49 51 53 52 56 62 63 65 66 63 61 62 62 64 65 60 56 56 58 60 64 65 64
28 28 28 27 26 30 40 48 52 48 34 27 49 75 77 66 62 62 65 70 68 71 83 78 63 69 80 69 52 53 60 62 63 60 59 64 71 75 82 90 87 80 83 91 90 87 92 88 78 81 83 66 58 71 79 74 70 61 46 41 46 51 54 54 57 62 63 62 65 67 64 63 62 60 61 66 66 63 62 59 55 55 57 59 60 59 60
27 26 27 27 26 32 47 54 48 43 40 37 44 59 70 77 79 73 68 68 64 66 80 79 66 68 75 61 47 54 63 67 73 75 69 68 74 77 79 85 88 82 80 86 89 86 90 91 85 85 84 72 66 79 87 77 62 51 42 43 49 53 57 62 66 68 67 67 70 70 65 63 64 66 69 70 64 58 58 57 56 57 58 58 58 56 54
26 26 26 28 30 35 50 59 50 41 43 45 45 55 70 80 80 73 69 68 64 63 72 78 78 80 78 67 61 61 61 67 79 81 73 71 76 80 83 89 89 82 79 84 86 84 89 94 89 84 84 80 77 84 84 69 55 51 53 56 57 58 63 68 67 67 71 76 78 75 70 70 72 70 66 62 58 54 53 52 53 56 57 56 56 56 56
24 24 22 25 29 37 51 58 46 39 46 52 54 63 75 80 80 78 73 68 70 78 82 81 84 85 78 72 75 72 61 63 75 81 81 79 76 81 91 92 84 80 80 79 80 84 90 89 81 77 83 86 85 84 77 63 57 59 60 60 63 66 68 68 66 67 73 78 78 75 71 69 69 64 59 59 58 54 52 51 52 54 57 57 56 56 59
18 19 22 25 28 39 53 53 44 49 67 72 66 66 73 78 80 83 78 69 69 82 92 93 94 88 71 65 74 72 62 65 76 83 86 80 73 82 95 88 78 81 84 82 88 97 92 76 68 75 88 88 77 70 66 60 59 60 58 60 69 72 70 72 77 79 76 72 68 66 62 60 60 60 58 57 55 52 52 54 53 54 59 60 59 60 63
10 15 22 21 24 40 53 53 53 64 74 76 71 67 69 74 76 75 74 71 70 77 87 91 95 94 83 77 78 73 65 69 77 81 85 82 76 84 97 93 84 84 83 82 92 100 90 76 74 83 90 80 61 54 59 62 63 66 67 67 72 74 73 76 81 78 68 61 57 56 56 57 58 58 57 55 54 54 55 55 55 58 62 64 65 66 67
11 17 15 16 40 69 71 57 55 61 65 70 74 67 61 67 72 75 80 82 77 77 84 89 92 96 94 87 81 70 65 74 82 81 82 83 76 75 85 91 87 82 78 79 85 86 84 86 89 92 92 79 57 51 63 71 69 71 74 72 72 75 75 74 74 69 63 60 58 57 59 61 61 58 58 58 58 57 57 57 59 61 64 66 68 69 69
9 14 13 24 56 80 72 56 55 63 66 67 67 64 64 62 54 57 80 97 90 81 85 92 97 99 97 94 90 75 62 70 86 87 82 79 71 65 71 80 81 77 77 77 73 67 66 77 91 97 94 77 58 56 70 77 71 68 71 70 67 68 69 68 67 65 63 63 62 60 61 63 64 63 62 61 60 60 60 61 62 63 65 67 69 70 72
12 26 42 57 64 59 53 54 61 65 68 67 63 65 71 65 55 61 82 95 93 88 86 87 92 96 94 95 98 88 67 62 75 84 83 80 74 70 75 79 76 75 78 78 77 72 68 73 89 96 82 63 58 66 75 74 68 65 66 65 63 62 63 62 60 59 60 60 60 58 58 61 63 64 64 63 64 64 63 62 63 64 66 68 69 70 72
33 46 58 67 63 50 48 57 61 60 64 65 60 60 61 60 68 83 85 76 80 93 93 85 86 91 91 90 94 90 75 65 70 82 88 86 80 77 77 75 72 74 78 80 83 85 81 80 91 96 81 65 67 75 74 69 67 66 63 61 61 60 60 60 58 56 55 56 56 55 56 59 62 63 63 63 65 66 67 67 66 66 67 69 69 70 69
40 48 52 57 59 54 52 53 52 55 62 60 55 63 72 67 61 63 61 60 73 86 83 75 76 79 78 79 81 80 73 67 71 81 88 86 83 83 83 84 87 87 84 80 82 89 93 94 95 91 79 70 73 76 73 69 69 68 63 59 56 54 55 57 57 53 50 51 54 55 55 58 60 61 61 62 64 65 65 65 66 67 67 68 68 69 69
38 48 50 50 50 49 47 45 46 58 73 69 51 47 59 61 56 60 70 81 88 86 76 74 77 76 71 71 75 74 68 64 71 84 87 84 87 93 94 96 99 95 86 82 82 86 91 94 86 73 68 70 74 74 70 67 65 61 56 50 46 45 47 49 50 49 47 49 52 54 55 58 59 58 57 58 61 62 62 62 63 66 67 67 68 69 69
40 51 51 46 47 44 37 34 38 47 60 62 51 40 40 45 56 72 81 81 82 84 83 84 88 88 82 78 79 82 77 71 76 85 85 83 90 99 99 97 97 88 77 77 83 82 79 79 77 71 71 75 73 68 66 64 58 52 48 43 41 42 45 45 47 50 50 50 51 53 55 57 58 58 58 58 59 62 65 64 64 65 67 68 70 71 70
53 70 62 44 39 37 30 33 43 47 48 59 70 69 59 54 63 79 86 84 85 89 89 89 93 96 90 80 76 83 90 89 83 81 82 84 90 94 92 90 93 90 83 84 92 88 74 65 69 76 80 78 70 64 62 57 48 44 46 47 45 45 48 50 51 53 54 54 54 56 58 60 61 61 62 60 60 62 65 66 66 67 69 70 71 72 70
72 96 79 43 33 42 45 46 49 48 53 75 94 92 83 80 82 85 90 94 94 91 89 90 95 98 94 84 74 78 94 100 91 84 89 94 92 89 85 83 85 91 96 98 98 88 69 56 60 71 75 71 64 58 53 47 43 44 49 52 51 50 50 51 52 54 54 54 56 58 60 61 62 62 63 62 62 63 64 65 65 66 68 71 73 73 71
75 98 79 48 47 60 59 53 55 58 68 88 101 95 90 95 95 88 89 96 97 94 94 96 94 91 90 85 77 78 93 102 95 85 85 88 86 86 89 89 87 92 100 100 92 82 72 66 67 70 68 62 56 51 48 47 48 50 52 53 53 52 51 52 54 55 55 56 59 62 62 62 62 63 65 66 65 64 64 63 63 64 67 70 72 72 72
76 82 57 38 50 65 60 58 73 85 88 96 102 98 93 95 95 89 89 94 97 96 95 92 86 84 86 87 83 83 90 98 96 88 87 91 93 94 95 95 92 91 93 90 81 72 67 67 67 64 60 55 52 52 52 51 52 53 55 56 55 54 53 54 56 57 57 59 63 65 64 64 64 65 66 67 67 64 62 61 62 64 66 70 72 72 73
69 70 60 58 74 91 92 87 90 93 92 92 95 97 98 100 97 90 86 91 96 96 91 84 80 80 85 92 96 95 92 93 95 94 93 97 100 98 98 99 96 84 74 70 66 59 56 57 59 58 57 57 57 56 54 52 53 55 57 57 57 56 57 58 59 59 59 62 64 65 65 65 65 65 66 66 66 63 60 61 64 67 68 69 71 71 71
66 68 74 70 64 72 85 85 79 84 91 89 83 84 92 96 90 80 78 88 96 94 88 86 86 85 87 95 102 99 93 92 97 99 97 97 98 97 95 90 79 64 53 50 50 48 48 49 51 53 57 59 60 58 55 54 56 59 59 58 59 59 59 59 60 60 61 62 62 63 64 64 64 64 64 64 63 63 64 65 67 68 67 66 66 67 69
77 71 80 78 63 62 71 69 61 65 73 72 70 77 86 88 81 71 69 80 91 90 86 91 97 96 96 98 98 92 86 90 97 99 94 92 98 103 94 75 57 49 47 47 47 48 49 49 51 56 60 61 59 58 57 57 59 60 59 59 61 61 61 61 62 62 62 62 62 62 63 63 61 61 62 62 63 66 68 68 66 64 64 64 63 64 66
82 71 79 90 90 88 86 80 77 81 83 79 81 88 89 84 79 72 68 76 87 90 89 94 102 101 94 90 90 89 89 91 93 90 83 81 88 92 82 64 53 50 51 51 51 51 52 54 56 60 62 61 60 59 59 59 59 59 59 59 60 62 63 63 63 63 63 63 62 61 61 60 59 59 62 64 66 69 73 73 69 64 64 65 64 63 64
Wind_Speed
37 38 39 38 37 37 32 24 17 13 8 4 5 5 4 5 4 8 17 3 5 9 7 2 6 4 0 0 1 2 2 1 1 2 2 2 1 3 2 1 2 2 1 1 1 1 2 2 0 1 2 2 2 4 5 5 4 2 2 2 2 1 1 2 5 6 3 4 2 2 1 3 3 1 1 3 2 3 5 5 3 2 3 2 2 3 10
37 37 38 38 37 37 35 26 18 15 10 5 6 6 3 3 4 6 17 8 2 6 6 2 4 2 1 2 3 3 1 2 1 1 2 2 1 2 1 1 2 1 1 2 1 1 1 1 2 1 1 2 2 3 3 3 2 1 1 0 1 1 0 2 4 7 7 7 6 5 4 1 1 3 1 2 3 5 3 2 2 1 5 7 4 5 10
39 38 38 38 36 35 36 30 19 16 13 6 5 6 4 4 2 3 16 20 12 5 4 5 5 2 1 4 4 4 2 1 0 2 1 1 3 2 1 1 1 1 1 2 1 1 1 1 2 2 2 4 0 2 1 0 2 1 2 2 1 2 2 1 1 4 5 6 7 6 4 2 2 1 2 4 4 6 3 1 2 3 4 6 6 7 11
40 40 38 37 36 34 34 32 22 15 14 12 11 9 4 4 3 3 8 14 12 4 1 4 6 4 4 3 3 2 2 1 2 2 1 1 2 2 1 2 2 1 2 2 1 1 1 1 1 1 3 4 2 1 0 0 2 0 1 1 1 2 1 3 5 6 7 7 8 5 2 4 7 6 6 7 5 5 4 3 3 5 2 3 9 11 12
40 41 39 37 37 34 32 32 26 15 11 13 15 12 5 3 3 2 2 4 5 5 4 5 4 3 4 3 1 1 2 2 1 1 0 1 1 1 0 0 1 1 2 2 1 2 1 0 1 2 4 4 3 0 1 1 1 2 2 1 2 4 2 4 5 9 10 8 11 9 3 6 11 11 11 9 6 6 7 7 7 4 4 6 13 7 6
39 40 40 38 37 35 32 31 28 19 9 9 12 8 5 4 3 1 0 1 2 4 4 4 5 5 4 3 1 2 3 3 2 1 1 2 1 1 2 4 3 1 0 1 1 3 4 2 2 1 2 4 5 3 1 1 3 3 2 1 3 5 3 4 3 7 10 9 13 12 6 7 9 11 15 11 7 10 13 15 11 6 4 13 14 8 8
38 38 39 39 37 36 33 30 29 25 18 19 20 9 3 4 4 1 3 3 3 1 2 2 5 6 5 3 2 2 3 4 2 1 1 3 2 1 2 4 4 2 2 1 1 2 3 4 4 2 1 3 3 3 2 1 2 2 2 3 0 4 3 4 3 7 11 11 12 9 5 5 7 13 15 9 9 12 14 15 10 7 12 18 16 16 17
37 37 38 39 39 38 35 32 30 25 25 30 26 10 2 4 4 1 4 4 2 1 2 3 4 4 4 3 2 1 1 2 3 1 2 2 3 2 2 4 3 1 2 2 1 3 2 3 5 3 1 3 2 2 2 1 2 3 2 2 2 1 3 1 3 5 11 7 5 4 4 6 9 17 16 7 7 9 9 10 7 6 12 15 12 13 15
35 36 37 37 39 39 37 36 33 27 26 27 18 6 4 5 3 4 6 4 3 3 2 3 4 4 4 2 1 1 1 1 1 1 1 1 1 1 1 4 2 1 2 1 4 6 5 6 7 5 3 3 3 2 2 3 2 3 1 1 2 0 2 3 5 5 8 3 6 9 9 7 8 16 16 6 5 5 5 6 6 7 8 7 5 6 9
33 34 35 36 37 38 37 37 37 33 29 23 12 4 4 4 2 3 6 3 3 3 3 3 4 2 2 1 0 1 2 1 0 0 1 1 1 1 2 2 1 2 3 2 4 5 5 5 5 3 3 3 3 2 1 4 3 2 2 1 1 2 1 3 4 3 7 5 8 11 11 8 6 8 6 4 5 6 6 5 7 9 7 3 4 7 7
33 33 34 34 35 36 37 37 37 36 34 26 16 8 5 4 2 2 6 5 3 3 2 4 4 2 0 1 1 0 2 3 2 2 1 1 1 1 1 2 1 3 3 2 2 3 4 2 1 1 1 1 2 2 2 3 3 3 4 2 1 2 3 1 1 1 7 9 9 9 7 5 5 5 5 4 7 7 7 8 9 9 7 6 6 7 9
32 32 33 33 33 34 35 35 35 36 34 28 23 18 12 7 3 2 6 6 2 4 4 3 1 1 1 2 1 1 1 2 1 1 1 2 2 1 1 2 1 3 3 2 3 3 3 2 0 1 2 2 1 3 4 3 3 1 3 5 3 3 3 0 1 2 5 7 8 8 5 6 9 5 2 4 6 7 7 11 13 10 9 10 10 11 13
31 31 32 32 32 32 32 32 32 33 31 28 27 26 20 13 7 4 5 6 1 3 4 2 1 1 1 1 0 2 3 2 2 1 1 1 2 2 1 1 2 2 2 4 4 2 2 4 2 0 2 3 3 5 5 3 3 3 2 4 4 5 4 1 1 2 3 4 4 4 8 12 13 8 3 2 1 2 1 9 13 9 5 8 8 11 12
30 30 30 30 31 30 30 29 28 29 29 26 26 29 25 19 11 4 4 6 2 2 3 3 4 3 2 1 1 2 3 2 3 1 1 0 2 4 3 2 2 3 4 3 3 2 1 3 5 4 4 5 5 3 2 2 2 2 3 3 2 5 4 1 1 1 1 1 3 5 8 12 10 3 1 1 1 2 2 5 12 9 2 5 5 10 12
30 30 30 29 29 29 29 29 27 26 27 25 23 26 27 24 15 6 3 6 4 0 2 3 3 2 3 1 1 3 4 4 3 2 1 1 2 4 3 3 2 3 3 1 2 3 2 2 4 4 5 5 4 4 2 1 1 2 2 2 2 3 2 3 2 1 2 1 4 5 5 9 8 3 3 4 3 1 2 2 8 5 4 1 6 11 14
29 30 29 29 28 28 27 27 26 25 24 23 21 23 26 24 18 11 5 6 6 3 3 3 3 2 4 0 1 4 3 3 3 3 4 4 3 3 2 2 2 2 1 3 3 3 4 2 1 1 3 2 2 4 4 2 2 2 2 4 5 4 2 3 2 3 1 2 3 4 4 8 8 5 5 4 2 1 3 2 6 4 3 7 9 11 14
29 29 29 28 28 27 27 26 25 24 22 21 20 22 25 23 18 13 8 5 6 2 3 2 1 3 4 2 3 2 2 0 2 2 2 4 4 4 2 1 2 3 1 3 4 4 5 3 1 1 3 3 1 3 4 2 3 5 4 4 6 5 4 2 2 4 2 3 3 4 5 8 9 8 7 5 1 3 3 6 8 6 9 12 10 10 13
29 29 28 28 28 27 27 26 25 24 21 19 19 22 23 21 17 13 8 5 5 2 3 2 2 3 2 1 1 0 1 1 2 1 2 3 3 2 2 1 1 2 1 2 3 3 3 1 0 1 3 4 1 1 2 2 3 5 2 1 2 2 2 1 2 4 3 4 4 5 5 7 7 7 6 4 1 1 4 8 7 7 12 13 10 10 11
29 29 29 28 28 28 28 27 26 24 21 17 17 20 22 20 17 13 10 6 5 3 3 4 2 1 0 1 1 0 1 2 2 2 2 4 2 0 1 1 1 1 1 3 2 3 2 2 1 2 2 4 2 0 2 2 1 3 3 3 2 1 1 0 1 2 2 3 3 4 7 5 4 4 4 2 3 5 6 8 7 7 9 11 11 11 10
27 28 28 27 28 28 28 27 27 25 22 19 18 20 22 20 17 15 13 8 6 3 2 4 3 2 2 3 3 2 1 3 2 3 2 2 2 2 5 3 2 2 2 3 2 1 1 1 2 1 2 4 1 1 4 3 2 3 4 3 3 3 1 2 3 3 1 1 0 4 7 4 3 2 3 1 4 7 7 7 8 7 7 8 9 10 9
24 25 25 26 27 28 28 28 27 26 24 21 18 21 22 20 18 16 13 12 9 4 1 2 5 6 6 6 5 3 2 1 1 1 1 3 3 3 3 2 2 0 0 1 1 1 1 2 1 1 1 2 1 2 3 4 5 5 4 3 2 4 3 3 4 3 0 2 3 3 7 7 3 2 4 5 6 6 4 5 7 6 6 5 5 8 9
22 22 23 23 25 26 28 29 27 26 25 22 19 23 24 18 15 15 14 14 13 9 6 7 8 10 10 9 8 7 5 3 1 1 0 2 3 1 1 2 2 2 2 2 1 2 1 1 1 1 2 2 2 2 1 1 5 6 2 1 2 5 7 4 5 4 4 7 8 8 12 11 3 3 5 8 9 6 4 5 6 5 5 4 4 8 11
20 20 21 22 23 25 26 27 26 25 24 23 22 26 26 19 13 14 16 18 16 11 7 7 7 7 8 8 8 8 8 6 3 2 1 1 3 1 2 1 2 2 1 1 1 2 2 2 1 0 2 2 2 2 2 2 3 4 2 3 5 6 5 3 3 4 4 8 10 10 12 12 5 4 7 6 6 6 4 5 5 5 6 6 5 8 10
18 19 19 20 21 23 24 25 25 23 22 23 22 23 26 23 16 12 11 11 9 5 3 3 3 2 3 6 6 7 9 9 6 4 3 3 1 2 2 2 1 1 2 2 1 3 2 2 1 1 2 3 3 2 3 4 4 3 2 3 5 4 3 3 4 4 4 6 8 9 11 11 7 8 9 5 4 6 5 4 6 7 7 7 8 9 10
16 17 18 18 19 20 21 22 22 21 20 20 19 20 25 28 22 13 9 6 4 4 3 2 2 0 2 4 5 5 7 10 8 5 3 6 7 4 3 2 0 1 2 2 1 3 1 2 1 1 3 3 2 3 3 4 3 2 2 4 4 2 1 2 6 6 5 9 13 14 15 14 8 7 8 5 3 6 6 6 7 7 7 8 9 9 8
15 15 16 17 17 18 19 20 20 19 17 16 17 21 26 27 24 19 13 8 4 5 4 1 2 1 2 3 3 4 6 8 9 6 4 5 8 9 7 4 3 2 0 2 2 2 2 1 1 2 3 3 2 3 3 4 3 1 4 6 2 2 2 3 4 5 7 11 12 10 13 14 7 7 6 5 5 7 7 7 8 8 9 10 10 11 9
13 14 15 15 16 17 17 17 17 16 14 12 14 19 23 24 24 22 18 11 3 2 3 1 3 4 4 2 3 6 6 6 8 7 4 4 5 7 8 6 3 1 2 2 1 2 3 2 1 4 4 2 2 3 3 4 2 2 6 6 1 2 4 4 2 4 8 10 7 4 6 11 10 5 5 7 7 7 6 8 8 8 10 11 12 14 15
13 13 14 14 15 15 15 16 15 13 12 9 8 11 17 23 25 21 16 12 6 3 3 2 3 4 3 2 4 8 8 8 11 9 4 4 4 6 7 6 3 2 3 2 1 2 3 2 2 3 2 2 2 2 2 1 1 3 7 6 4 5 7 6 4 6 11 12 9 4 4 8 12 12 10 9 8 6 6 8 9 9 10 10 9 12 15
13 13 13 13 14 15 15 15 14 12 12 9 4 2 6 14 21 21 16 11 8 4 3 1 1 2 2 3 6 7 8 12 15 10 4 3 4 6 6 7 6 3 3 3 2 2 3 4 3 2 2 2 2 2 2 0 2 6 8 7 7 8 9 9 9 11 14 14 10 5 4 9 12 12 11 10 9 6 6 9 9 9 12 12 9 10 13
13 13 13 14 14 14 14 14 13 14 14 9 3 1 2 5 14 22 18 10 6 4 3 3 1 2 3 4 4 6 10 15 15 9 5 5 5 6 6 6 6 4 2 2 1 2 2 2 2 3 3 2 2 2 1 1 2 7 9 9 9 9 9 9 10 11 13 12 8 4 5 9 10 9 8 9 9 6 5 8 11 13 16 16 12 11 15
13 14 14 14 14 14 14 14 13 14 15 11 6 4 2 2 10 18 16 8 5 4 4 3 1 2 4 4 2 6 14 16 12 8 8 6 4 4 5 5 5 4 3 1 1 2 2 2 2 2 3 2 3 2 2 2 2 8 12 12 9 8 8 8 8 8 10 11 10 10 10 8 6 6 6 7 9 9 7 10 17 20 20 20 17 16 18
13 14 13 13 13 13 12 12 12 11 13 16 15 9 2 4 11 14 10 6 5 4 4 3 2 1 3 4 3 7 14 13 8 8 8 5 2 2 3 4 3 4 5 2 0 2 3 3 2 2 2 2 2 2 2 3 5 12 17 14 9 7 8 8 6 6 8 7 7 9 11 7 4 5 8 9 13 15 13 14 22 25 23 22 22 21 21
13 13 12 12 12 11 10 10 12 12 10 13 15 14 10 7 8 9 6 4 5 4 4 4 2 0 2 3 2 7 11 8 4 7 6 3 0 3 2 1 1 2 4 3 2 3 2 2 2 2 3 1 2 0 1 6 13 17 17 13 10 8 8 8 7 7 7 5 2 4 7 8 8 10 12 13 14 17 17 18 22 23 21 19 18 19 21
12 12 12 11 10 10 8 9 12 13 10 8 11 16 16 11 8 8 6 3 4 4 3 4 3 1 3 3 1 5 9 5 2 3 4 2 0 2 2 1 2 1 3 3 2 2 2 1 2 1 2 1 1 0 4 12 17 14 11 10 9 9 9 8 7 7 6 5 2 5 7 9 11 12 13 13 15 18 20 20 20 18 17 16 16 18 19
12 11 10 10 9 8 6 7 12 14 10 8 12 16 14 9 9 11 10 6 4 2 2 3 3 1 3 4 3 4 7 5 2 2 2 2 1 1 1 1 3 2 3 2 1 1 2 1 2 2 1 0 1 4 7 10 12 10 8 8 7 8 8 8 8 9 8 6 5 6 7 9 11 12 13 13 15 18 19 19 19 18 16 16 18 18 17
11 10 9 9 8 7 5 7 13 15 11 10 15 15 9 5 5 8 10 10 8 3 1 1 2 2 2 2 4 5 7 6 2 2 2 2 3 2 3 2 2 2 1 1 1 2 2 1 2 1 1 1 5 6 3 4 8 10 9 9 8 7 7 7 7 9 10 9 9 10 11 13 14 14 14 14 15 17 18 19 19 19 18 19 19 18 16
12 10 9 7 6 6 6 7 11 15 14 14 14 11 5 3 2 2 4 7 9 6 4 3 2 0 1 1 3 5 6 4 3 3 3 3 3 2 2 1 2 2 2 2 3 3 1 0 2 2 3 5 6 5 6 7 7 7 8 9 8 7 7 7 6 8 12 16 17 16 16 17 17 15 16 17 18 18 19 20 19 18 19 19 18 18 18
11 8 8 8 5 3 3 6 12 16 14 12 9 6 4 3 3 2 2 3 5 5 5 4 2 1 1 1 3 4 4 2 2 3 2 2 3 3 1 0 1 1 2 4 4 2 1 1 1 2 5 6 4 8 8 6 5 5 5 6 6 6 6 7 7 10 13 15 16 16 16 17 18 17 17 18 18 17 17 18 18 19 19 17 18 21 22
8 6 8 9 5 1 3 9 13 13 9 7 6 3 2 3 3 2 2 3 3 3 3 3 1 0 1 1 4 4 1 1 3 3 1 1 2 2 1 1 1 1 2 4 4 0 1 2 1 1 4 5 5 7 7 6 6 6 5 7 9 10 10 9 10 12 11 11 12 13 14 15 16 15 14 14 15 16 17 18 19 21 21 21 23 24 21
11 9 7 5 3 4 7 9 9 6 4 4 4 3 2 3 2 1 1 3 2 2 2 2 0 1 0 1 4 3 1 0 2 2 2 3 2 1 0 1 1 0 2 5 3 1 1 2 2 2 3 4 4 5 6 7 7 7 10 13 15 16 16 15 16 17 16 14 16 17 18 19 18 16 15 15 15 15 16 17 20 23 25 25 26 25 23
12 8 4 3 5 8 8 6 5 4 3 2 2 2 2 2 1 0 1 3 2 2 2 2 2 3 1 1 2 3 2 2 1 2 1 3 2 1 0 3 1 1 2 5 2 2 2 1 2 3 4 4 4 5 6 9 9 10 14 17 19 20 20 19 21 23 22 18 18 20 22 24 24 22 21 20 17 16 17 18 22 26 29 28 28 29 30
9 6 4 4 5 6 6 6 5 4 3 2 2 1 1 1 1 2 1 1 0 2 2 1 1 3 4 3 2 3 3 2 1 3 0 3 2 1 1 2 1 1 4 5 1 4 2 1 4 5 4 3 4 5 7 9 8 9 13 18 21 22 21 19 19 23 25 23 21 22 24 25 25 25 26 26 25 24 25 26 28 30 31 32 32 33 33
8 5 4 3 4 5 4 4 3 3 2 2 2 1 1 2 2 2 1 2 1 1 2 2 2 4 5 3 2 4 5 3 0 1 1 2 1 1 1 2 1 2 3 1 2 2 2 4 5 4 2 2 4 6 8 10 10 10 15 22 26 27 27 25 24 25 28 29 28 29 29 29 30 33 35 36 35 33 34 37 38 36 35 35 34 34 35
5 4 4 3 3 3 3 2 1 2 2 1 1 1 1 3 2 1 2 3 2 2 2 2 2 3 4 3 1 3 4 2 1 1 1 2 1 2 1 2 3 2 2 1 1 2 4 5 5 3 2 4 6 9 10 11 12 13 16 24 30 32 31 31 30 29 29 31 33 34 33 33 34 36 38 39 38 36 36 39 40 38 37 36 34 34 37
2 3 4 3 3 2 1 1 2 2 1 0 1 3 2 1 1 1 0 1 2 2 4 2 0 1 4 3 2 1 2 1 1 0 1 1 1 0 2 3 2 1 2 2 3 3 5 5 3 2 5 6 9 11 11 12 16 18 19 22 26 29 29 28 27 25 25 29 32 33 31 31 31 31 32 36 39 38 37 37 36 36 35 34 32 34 38
3 2 3 3 1 2 1 1 1 1 1 1 2 3 3 3 3 4 3 2 2 3 5 4 2 2 3 3 2 1 0 1 1 2 0 2 1 3 2 1 1 1 2 3 3 5 7 6 3 4 7 9 11 13 14 15 19 22 20 17 19 24 28 28 27 27 28 31 32 31 30 30 31 30 31 34 37 38 38 38 38 37 35 31 31 34 37
4 2 2 3 1 2 1 1 1 1 2 3 3 3 2 2 2 3 3 3 3 3 4 3 2 2 3 2 2 2 1 1 1 2 0 1 1 3 2 2 1 3 3 4 5 6 5 5 5 6 9 13 15 17 17 17 18 19 19 17 19 23 28 29 28 29 31 33 33 31 30 31 32 32 32 32 34 37 38 39 40 39 36 34 35 37 38
2 1 2 2 1 1 1 1 1 2 2 1 1 0 0 1 2 4 4 4 3 3 3 2 2 3 3 1 0 2 2 1 1 2 1 2 0 2 3 2 4 4 3 4 6 5 4 4 6 9 12 15 16 17 17 16 17 18 19 19 20 24 28 29 29 30 34 34 31 29 30 32 34 34 33 32 33 36 39 40 41 40 39 38 38 39 39
4 2 2 2 1 2 2 1 1 3 3 1 1 2 1 1 3 5 4 2 2 3 3 2 0 2 3 1 1 1 1 0 1 1 2 2 0 1 1 3 5 5 4 4 4 5 6 7 10 14 16 16 16 16 16 17 20 21 22 23 26 29 30 30 31 34 36 34 31 31 34 35 34 34 33 31 31 34 39 41 41 40 41 41 40 39 39
5 2 2 2 1 1 1 1 1 2 4 4 3 1 1 2 3 4 3 2 1 2 2 1 1 0 1 1 2 1 2 2 1 1 1 1 2 2 3 5 7 7 6 6 6 8 10 10 12 15 17 18 17 16 17 20 23 26 29 32 34 34 33 34 35 36 36 36 36 37 37 36 35 35 34 33 34 37 40 40 40 39 40 41 40 39 39
3 1 1 1 2 3 3 3 2 2 3 4 3 2 2 2 3 4 3 2 2 4 3 1 0 2 2 2 1 1 2 1 0 0 2 3 3 2 3 8 9 7 8 9 9 10 11 12 12 14 16 16 16 18 22 27 31 34 36 37 37 36 35 36 36 36 37 38 39 39 38 38 39 40 40 40 41 38 33 32 36 39 40 39 38 38 38
1 0 1 2 2 3 3 2 2 3 3 3 3 3 2 2 4 5 2 1 2 1 1 1 2 1 1 2 2 1 1 1 1 3 4 4 3 3 5 8 9 8 9 10 11 11 11 12 13 15 16 17 19 25 31 36 38 39 40 40 39 37 37 36 36 37 38 39 40 41 41 42 43 44 41 39 35 27 20 23 32 39 40 38 38 40 40
Wind_Direction
33 32 30 28 26 26 28 33 39 41 54 78 67 79 62 65 127 349 357 27 144 57 63 1 21 67 122 72 106 9 55 100 352 352 8 14 11 24 43 28 32 59 357 52 100 293 246 202 338 285 265 302 357 8 11 354 338 27 20 335 348 18 65 1 288 278 308 334 11 70 77 98 112 253 139 145 170 137 155 186 194 192 199 162 103 255 270
34 33 31 30 28 26 27 32 38 39 50 80 75 84 96 100 148 12 17 38 147 67 87 107 41 49 294 57 33 347 65 93 29 32 8 9 86 61 46 17 40 64 84 85 89 349 2 314 359 29 248 288 26 38 20 7 31 80 167 216 9 303 261 29 328 324 339 344 354 356 345 54 176 254 239 171 134 102 123 163 121 248 219 171 162 245 262
35 34 32 31 31 28 27 29 35 42 47 64 91 107 119 78 111 340 21 43 66 91 138 140 121 129 72 64 22 355 57 65 329 156 130 182 167 125 117 192 139 143 118 91 76 42 70 267 337 38 249 260 239 78 20 14 126 139 214 213 221 229 203 114 13 313 308 305 315 323 316 295 256 240 240 228 170 140 167 161 122 241 232 164 178 241 266
34 34 33 32 32 32 30 29 33 45 53 67 86 92 102 78 60 321 354 30 55 77 129 103 113 143 118 75 8 35 84 290 239 165 139 199 177 122 178 194 149 101 70 52 352 293 188 211 326 310 254 262 245 136 36 112 134 158 262 236 93 93 203 210 187 211 239 254 266 278 345 304 284 277 254 229 191 155 132 109 177 210 175 201 237 244 271
32 33 33 34 33 34 34 32 31 41 60 74 77 64 55 96 77 17 322 354 30 40 24 41 68 129 118 92 8 2 337 315 288 162 160 189 153 75 80 108 56 28 30 31 291 263 295 99 221 239 242 265 291 25 121 77 335 319 287 233 103 86 288 249 199 225 243 253 267 272 289 274 269 273 264 234 184 156 164 199 218 165 102 268 260 238 246
31 32 33 34 34 35 38 37 36 40 56 87 87 59 26 78 127 212 149 44 33 27 15 38 51 48 73 99 46 354 355 8 16 301 355 38 22 43 31 18 13 317 289 54 298 306 341 325 265 283 279 293 332 358 54 31 332 327 346 321 113 119 250 246 194 252 255 247 263 268 258 254 252 258 263 251 193 177 200 225 221 155 190 256 267 271 263
31 31 31 33 35 36 38 41 42 48 63 81 85 75 20 78 109 286 16 81 142 146 349 59 67 47 59 84 49 33 41 32 355 274 35 10 341 51 30 341 337 286 239 80 323 298 346 323 295 306 308 295 325 336 322 12 334 334 27 334 89 141 244 239 186 281 275 252 259 264 245 261 270 263 260 245 212 205 215 237 232 197 236 256 271 284 283
31 32 32 32 33 35 38 42 43 48 62 72 73 65 39 108 138 163 54 65 106 69 10 64 71 37 45 69 48 58 77 4 328 299 78 14 334 32 17 312 305 215 179 134 250 247 215 268 263 217 275 301 266 260 272 120 12 357 58 333 312 171 273 257 113 312 294 273 287 295 241 246 273 281 279 255 228 233 232 245 243 223 250 263 275 283 282
31 32 32 32 33 34 35 41 42 42 56 70 70 50 62 101 155 146 104 58 4 12 21 66 80 37 15 43 52 13 323 307 295 279 61 64 296 305 314 292 291 89 102 174 259 257 215 220 238 214 216 266 224 233 270 120 70 347 34 345 338 117 294 358 53 343 295 310 356 321 288 269 269 284 289 263 203 218 221 225 211 198 232 271 290 275 268
32 31 32 32 34 34 34 38 40 41 50 66 77 60 62 94 120 103 101 76 2 8 6 37 77 65 357 17 81 345 316 305 80 47 358 61 84 243 215 219 284 1 351 295 260 254 225 226 253 224 206 242 227 214 202 114 120 188 161 60 354 106 72 355 35 328 278 314 341 314 311 328 305 276 262 202 205 241 250 247 222 201 197 222 246 247 263
32 32 32 32 33 34 34 36 39 39 43 55 74 76 55 84 106 58 80 78 6 346 31 41 53 80 233 46 62 26 348 344 21 69 4 325 20 2 181 141 9 304 270 265 272 254 243 254 326 129 159 244 235 179 140 99 98 148 146 124 353 76 91 336 57 232 277 308 330 327 341 342 275 234 186 215 263 259 254 267 255 220 198 215 246 267 285
33 32 32 33 34 34 35 36 38 39 40 47 62 65 47 47 76 64 86 97 3 356 59 60 13 52 32 26 55 216 298 343 356 97 309 282 295 328 143 109 7 286 260 311 308 261 259 290 229 127 65 46 81 82 73 62 36 35 138 136 132 105 104 238 151 172 272 315 355 354 335 275 268 281 275 259 247 204 217 265 269 243 219 234 262 275 277
35 34 34 34 35 35 36 36 38 40 38 38 50 55 44 39 59 73 95 105 44 357 81 98 321 79 75 340 34 247 252 283 317 259 175 248 275 288 301 150 212 274 334 334 307 276 301 325 330 324 355 11 43 56 47 27 6 2 43 105 130 139 138 163 171 188 279 338 13 332 293 290 300 320 339 282 230 124 306 297 293 283 218 206 245 267 274
39 38 37 36 36 37 38 38 38 39 38 35 43 50 44 37 49 74 105 97 82 259 127 78 348 13 49 262 353 346 307 330 355 341 138 165 263 255 249 217 230 309 330 317 328 6 11 3 14 357 338 2 11 357 355 22 49 38 7 2 113 133 138 167 261 220 185 271 275 279 300 308 310 321 337 274 301 29 30 296 299 317 91 158 258 299 308
41 40 40 39 38 39 39 40 41 41 40 36 41 50 46 37 40 56 101 108 112 243 53 34 321 359 78 220 271 27 6 354 358 349 349 322 255 242 246 242 263 305 309 326 31 41 43 26 23 0 341 354 350 307 302 9 48 58 24 3 73 106 155 178 211 265 104 94 293 303 315 302 288 264 271 267 239 211 116 243 289 329 73 108 314 324 324
41 40 41 41 40 39 39 40 42 44 43 40 42 50 47 37 36 47 67 103 106 65 351 310 256 149 110 156 307 64 49 345 344 353 344 330 299 273 256 241 250 264 326 49 65 69 50 33 89 29 317 304 286 298 316 342 331 352 42 57 58 42 30 117 137 286 358 117 260 259 249 272 282 284 287 285 237 169 78 325 284 294 354 342 339 334 324
41 41 41 41 41 40 39 39 41 44 44 42 44 50 47 39 35 44 57 81 92 71 296 269 150 91 86 27 342 39 98 356 27 34 332 307 302 302 286 241 241 231 174 50 38 60 62 52 73 351 282 240 174 317 321 352 327 316 342 32 47 27 3 62 164 252 222 159 236 256 236 259 284 299 306 314 218 137 43 326 292 308 340 339 340 331 319
41 41 41 41 41 40 39 38 40 44 44 42 48 52 49 42 38 49 68 83 89 77 310 325 68 68 82 105 316 254 171 359 14 46 309 303 290 291 291 291 299 248 189 72 54 63 65 341 320 51 266 260 59 335 300 342 313 294 305 26 36 10 338 95 174 226 217 197 238 278 270 266 280 288 292 303 309 75 352 312 301 337 338 328 327 324 314
40 40 40 41 40 39 39 37 39 44 44 43 48 52 51 46 45 61 79 80 86 95 336 339 35 77 125 117 54 108 167 35 57 113 28 335 293 203 7 335 341 325 37 72 87 94 73 296 267 123 246 290 340 354 270 268 251 280 321 334 312 275 305 331 166 199 218 196 210 291 293 268 242 253 259 292 342 335 317 303 313 336 325 316 321 321 315
37 37 37 39 39 39 38 38 41 44 44 44 51 57 56 51 51 67 89 101 103 104 6 356 30 45 21 37 45 35 17 25 50 128 123 281 273 48 34 350 332 350 11 37 34 61 120 276 287 141 210 263 276 260 278 278 240 255 276 269 222 189 220 279 222 195 281 324 352 318 297 250 203 293 310 344 331 320 309 307 319 321 307 306 311 310 311
31 32 34 36 37 37 37 39 43 45 44 45 53 60 60 57 56 67 96 118 114 103 73 49 66 64 50 42 46 45 34 23 271 192 172 266 279 49 44 288 265 248 335 72 53 295 201 193 245 243 224 253 259 252 282 313 308 272 229 211 221 192 189 268 257 199 201 283 235 258 275 254 212 313 302 285 299 314 305 295 306 305 294 288 285 292 298
28 30 32 33 35 35 35 38 42 44 44 43 50 58 59 60 65 71 89 104 98 97 125 123 92 73 60 50 43 31 16 10 302 247 352 303 311 61 117 258 248 206 194 126 96 306 281 173 185 266 275 274 256 237 213 281 301 295 266 150 250 212 189 223 255 215 212 252 248 255 279 282 247 196 251 282 302 308 273 264 280 283 280 281 283 290 293
27 30 31 32 34 34 34 36 39 41 40 37 42 54 57 60 75 88 94 96 91 90 113 123 101 70 49 40 39 28 16 13 349 283 231 286 321 300 198 237 264 235 209 129 188 208 197 195 169 117 261 236 210 250 286 229 246 274 266 233 250 234 187 165 233 244 265 270 252 246 269 284 284 255 260 270 282 283 268 258 261 262 272 284 283 281 288
26 29 31 32 33 33 31 34 37 38 38 35 37 50 57 58 67 89 97 93 89 88 90 81 80 75 2 3 19 22 18 17 2 313 245 210 237 312 289 259 251 341 326 288 220 103 119 214 162 120 242 224 174 188 272 258 232 231 265 285 283 265 190 166 229 267 299 282 259 254 267 274 280 290 288 266 233 256 265 250 250 258 269 275 275 280 289
25 27 28 28 29 30 29 30 32 35 38 36 35 46 54 51 50 63 84 81 84 112 111 9 345 356 337 353 10 15 10 12 10 353 284 226 211 220 264 285 6 329 294 272 89 80 94 242 175 161 233 235 199 194 226 249 240 198 234 272 274 252 192 211 238 240 239 256 268 280 285 279 256 247 266 269 264 281 285 269 264 273 278 275 274 279 287
21 22 22 22 23 25 25 25 26 30 36 37 37 46 53 50 44 49 62 68 75 94 91 314 267 287 342 344 350 349 355 4 4 356 319 257 232 232 245 263 282 279 259 92 99 134 167 191 174 196 217 231 236 216 213 248 270 247 244 253 237 132 185 235 248 252 259 266 270 281 296 295 265 205 219 262 293 301 295 282 282 294 302 304 303 300 298
16 16 15 16 16 18 20 21 20 21 27 35 42 50 55 53 46 43 45 43 37 74 70 210 252 310 326 291 316 347 350 349 347 342 315 263 244 242 241 237 242 259 99 91 75 122 109 80 229 209 213 239 238 206 214 250 276 261 256 258 182 133 223 237 260 278 272 271 259 234 285 297 287 267 273 288 298 306 297 286 296 306 306 309 312 310 307
12 11 9 9 11 13 16 18 17 16 17 21 39 55 56 52 47 43 39 37 47 128 152 200 260 319 339 250 300 340 347 341 342 342 312 262 248 240 232 214 189 128 125 151 167 123 139 185 217 204 215 245 244 242 262 291 292 256 254 238 179 190 215 205 199 243 260 269 266 229 231 276 287 300 311 308 308 312 290 282 295 303 300 299 301 303 306
8 8 6 4 6 10 13 15 18 17 10 4 8 59 59 48 40 34 31 38 58 98 118 92 318 328 338 277 297 326 343 342 341 341 319 282 258 241 232 213 196 172 126 122 121 145 192 209 205 210 220 192 194 264 295 338 235 253 249 222 202 216 218 209 223 249 265 276 278 259 255 279 293 307 313 305 304 303 283 284 293 295 297 300 296 291 296
6 6 3 0 4 10 12 16 22 20 12 5 1 4 21 32 22 17 18 35 67 91 105 102 95 305 318 313 304 326 341 343 344 344 332 309 274 246 236 221 208 188 103 72 149 181 224 255 251 268 269 204 176 245 266 184 237 267 262 244 233 237 239 235 238 249 264 279 291 301 293 291 297 305 297 288 293 293 280 293 301 299 300 303 300 295 297
4 4 2 360 3 9 13 18 23 21 20 29 51 57 51 317 341 355 8 32 58 76 103 103 62 316 334 339 323 343 344 341 343 344 329 315 294 253 233 223 218 198 167 128 221 195 216 236 238 281 288 210 175 206 207 182 254 278 271 261 251 248 255 260 257 254 267 287 307 319 309 293 289 308 306 299 310 315 307 304 309 308 307 306 303 298 296
2 2 0 358 1 8 15 23 23 18 30 51 63 69 75 292 320 341 6 39 48 70 99 74 20 337 336 321 313 350 347 339 345 356 338 314 322 308 247 218 223 217 192 167 217 242 228 205 203 267 279 189 176 216 195 182 236 256 261 267 273 272 272 283 290 281 279 290 305 312 311 306 312 329 320 310 315 321 318 313 313 313 311 309 307 304 301
1 359 356 355 1 9 16 25 24 18 31 54 54 43 27 1 346 355 21 54 51 61 92 90 79 201 291 290 315 10 0 344 355 9 342 276 307 346 288 223 292 249 201 177 201 242 232 165 166 270 292 222 170 175 240 235 241 249 261 276 289 294 298 304 302 291 296 312 294 259 281 296 304 309 306 304 312 318 315 312 313 313 313 314 313 312 312
358 356 356 356 2 12 20 26 23 20 30 43 28 16 15 18 23 29 35 60 69 52 51 79 106 250 316 326 349 18 11 355 326 352 332 276 22 3 291 298 2 336 199 197 217 261 283 213 160 233 281 279 96 104 251 252 253 259 276 288 294 307 316 318 315 311 318 329 286 241 260 284 297 306 311 314 320 322 321 320 320 319 318 319 316 315 315
358 358 360 359 2 11 22 23 16 20 34 30 2 359 7 24 45 48 43 43 57 48 15 50 87 100 4 359 317 331 1 359 279 268 289 280 316 33 127 2 343 285 214 209 227 265 274 224 171 205 261 55 199 229 241 260 276 291 304 307 319 339 336 326 325 325 322 322 314 306 311 318 320 323 325 324 323 325 324 324 323 321 318 316 313 313 313
5 5 6 6 10 18 31 27 18 17 15 351 339 346 2 28 46 50 48 46 55 83 145 55 69 97 62 355 287 314 352 350 289 261 295 299 317 10 77 70 303 259 196 61 296 257 262 192 172 254 316 182 218 237 263 322 313 309 317 327 341 354 342 322 312 310 315 328 335 334 336 336 332 329 326 323 324 326 324 323 323 322 319 316 313 312 312
11 16 17 15 19 32 45 35 14 3 351 336 335 347 10 20 7 33 47 44 44 54 78 87 85 120 114 253 286 331 349 336 311 335 335 301 293 324 52 72 277 282 349 336 254 233 252 158 168 223 243 225 237 297 350 350 321 319 337 342 344 356 352 335 320 320 331 340 341 339 338 336 331 328 327 325 325 325 323 322 322 319 315 312 309 307 306
11 20 27 31 41 60 44 0 348 345 343 341 344 354 2 8 24 33 357 11 22 28 51 72 59 354 20 336 306 325 331 320 348 2 334 288 303 326 22 72 268 285 330 292 253 201 115 337 170 211 253 263 313 353 352 345 351 11 8 349 346 354 347 335 337 343 343 341 337 334 332 327 322 320 320 318 316 315 314 312 309 307 305 302 300 300 300
15 20 31 43 59 121 297 326 333 337 342 349 358 7 353 3 30 26 334 355 15 1 20 55 72 356 43 338 300 297 299 339 346 342 311 278 298 300 302 314 311 2 340 295 284 69 43 297 312 325 283 300 358 3 343 349 18 21 4 356 355 349 341 335 337 337 331 320 315 314 312 309 309 309 308 307 307 306 305 303 301 301 299 297 297 297 296
27 32 39 43 17 329 328 332 335 342 353 357 11 44 40 11 29 49 355 24 31 333 347 63 112 253 191 251 280 278 232 285 300 291 263 252 244 191 147 289 286 20 291 280 287 47 49 273 295 318 290 304 342 339 333 355 10 0 354 355 350 343 339 336 330 326 320 311 308 310 307 305 305 304 304 305 305 304 304 305 303 302 301 300 299 299 299
21 26 27 341 328 341 355 7 15 23 32 29 35 55 38 1 5 64 47 44 22 285 276 65 29 338 330 182 243 270 282 275 220 132 204 273 268 111 235 266 274 60 264 258 267 58 65 274 279 271 258 270 303 319 341 358 359 350 346 345 340 337 335 330 326 327 327 321 316 317 315 311 308 306 305 305 304 303 304 305 305 305 306 306 305 304 304
2 1 359 346 348 3 21 35 33 28 42 60 44 32 8 346 6 17 25 57 40 293 307 50 34 299 283 263 240 243 265 291 32 90 72 283 270 146 219 288 11 15 251 250 357 55 50 276 266 255 243 265 314 337 354 354 346 335 333 334 334 333 329 325 322 324 324 320 317 316 314 311 310 310 311 311 311 311 311 310 310 311 311 310 309 308 307
357 8 24 32 27 21 20 19 20 31 53 53 36 15 351 358 22 36 346 313 337 1 336 322 322 313 304 290 256 243 254 268 320 106 224 273 294 61 24 355 10 226 243 273 41 29 270 246 245 243 240 308 333 347 353 343 332 329 331 332 333 333 329 327 325 324 323 323 320 319 319 319 318 319 319 319 317 316 315 314 314 313 312 311 310 309 307
357 22 39 43 22 13 12 359 12 46 52 31 54 96 16 344 351 38 9 337 331 335 315 310 344 345 323 309 292 269 267 270 82 93 267 281 340 59 41 266 246 247 281 312 271 259 258 248 244 258 329 353 344 345 345 336 332 334 334 333 333 333 330 328 327 326 325 325 323 321 321 321 319 318 318 317 315 313 311 311 311 311 310 309 308 307 306
358 16 30 31 2 356 21 7 6 39 74 72 151 153 156 238 258 227 242 241 249 299 315 315 334 303 291 288 287 270 277 345 37 305 264 304 346 292 228 238 257 350 347 300 273 279 283 272 268 336 1 350 339 336 334 332 333 334 332 330 330 329 326 324 323 322 320 319 318 317 317 315 314 313 312 310 310 309 307 307 308 308 307 307 305 305 306
75 58 67 82 28 355 64 89 13 31 133 195 198 176 166 178 205 223 234 224 242 299 308 302 291 287 288 289 282 266 313 34 330 256 153 73 298 256 237 220 357 359 321 287 268 261 268 279 317 1 344 331 330 330 330 333 334 332 327 324 322 321 319 318 317 315 314 313 313 313 312 310 309 308 306 305 306 306 305 304 305 305 304 303 302 303 304
76 55 79 102 46 353 43 130 213 220 204 205 199 183 176 198 234 245 243 230 246 286 300 296 276 258 258 262 266 272 323 39 314 265 164 101 253 278 341 20 276 245 233 246 252 252 264 297 338 343 329 328 332 332 330 330 327 323 319 316 315 315 316 315 313 312 311 311 311 310 309 307 306 305 304 303 303 303 303 303 304 304 303 302 300 301 302
99 61 83 106 143 245 202 193 267 264 241 216 166 137 35 330 303 285 262 237 248 289 308 328 339 311 291 275 211 272 300 356 307 276 318 90 338 319 347 317 265 249 216 225 251 269 288 314 326 327 327 329 329 325 323 321 319 316 316 315 313 312 313 312 310 309 308 308 308 306 305 305 304 303 303 301 301 302 303 303 303 303 302 301 299 299 299
83 86 96 110 152 210 199 136 22 314 299 320 56 64 46 287 275 280 278 264 261 267 256 229 254 294 285 303 43 317 285 256 243 304 357 41 72 267 268 258 267 273 262 250 278 309 319 322 324 324 324 323 321 318 316 316 314 314 313 311 310 310 309 307 306 306 307 307 306 304 303 303 303 302 302 301 301 302 303 303 303 303 302 300 299 298 297
61 75 120 127 142 219 217 113 80 312 312 338 11 20 305 273 278 279 267 218 224 306 316 334 52 324 314 14 29 341 274 255 246 7 351 282 227 222 242 253 260 272 287 299 312 319 318 319 320 318 316 316 316 314 312 312 311 310 310 309 308 307 306 305 306 306 306 306 305 304 304 303 303 302 302 301 301 301 301 301 301 301 300 300 299 297 297
37 49 204 212 194 189 176 147 158 229 279 309 305 259 230 245 270 269 244 165 73 31 9 339 48 23 2 351 332 285 278 279 81 311 264 240 191 166 236 259 268 286 305 309 311 314 314 314 313 312 312 313 312 309 308 308 307 307 307 307 306 306 306 306 307 307 306 306 306 304 303 303 302 302 302 302 302 301 300 299 300 301 300 300 299 298 297
66 87 268 270 223 157 137 124 167 211 234 250 241 215 196 229 255 257 244 136 69 16 283 205 123 65 313 263 237 271 314 317 296 285 276 249 197 193 241 266 283 302 305 301 304 308 307 305 305 306 306 306 305 305 306 306 306 307 307 307 306 307 307 307 307 307 306 306 304 303 303 304 304 305 305 304 303 302 300 300 301 301 300 298 298 298 297